Вернуться в каталог

SL-12 R/B

AUX MOTOR

АктивенHEO
NORAD 14607·ROCKET BODY·🇷🇺 Russia

Запущен Dec 29, 1983 с Baikonur Cosmodrome

Loading…

Ближайшие Пролёты (ближайшие 24 часа)

TLE

СвежийSource: Space-Track

Эпоха: Sep 13, 2026, 13:18 UTC

1 14607U 83127G   26256.55419505  .00000226  00000-0  37833-3 0  9991
2 14607  52.0780  22.6691 5521557  93.9767 327.5504  4.62504982695320

Отслеживайте SL-12 R/B в реальном времени с AllMySat

Download on the App Store